カタログに戻る

STARLINK-33975

運用中通信VLEO
NORAD 63802·PAYLOAD·🇺🇸 United States

打ち上げ May 2, 2025 から Cape Canaveral Space Force Station

Loading…

次のパス (今後24時間)

TLE

最新Source: CelesTrak SupGP

元期: Sep 14, 2026, 21:25 UTC

1 63802C 25091AC  26257.89284722  .00049132  00000+0  17797-2 0  2578
2 63802  43.0027  63.7002 0001403 274.2031  22.1017 15.27551888    16

AllMySatでSTARLINK-33975をリアルタイム追跡

Download on the App Store